Starlink 5646

operational
NORAD ID: 55461 Int'l Des: 2023-015 Owner: SPXS Country: US Constellation: starlink
LEOCIRCULAR

关于 Starlink 5646

正在加载描述...

实时位置

正在加载3D地球...

即将过境

高度历史

Altitude vs Time

uPlot chart will show altitude changes over time

两行轨道根数

1 55461U 23015N 25304.00267424 .00000071 00000-0 20365-4 0 9999
2 55461 43.0044 310.8516 0001185 265.1643 94.9064 15.02537272151243
Epoch: Oct 31, 2025 • Age: 12 hours

当前状态

高度 558.3 km
速度 7.59 km/s
星下点 13.01°N, 105.32°W
发射日期 Feb 2, 2023
运行时间 2.7 years
类型 internet

技术详情

分类 Payload
质量 305.00 kg
干质量 290.00 kg
总质量 305.00 kg
长度 0.20 m
直径 2.80 m
跨度 9.00 m
形状 Box + pan
制造商 SPXS
平台类型 Starlink
阶段状态 In Orbit
所有者/国家 SPXS/US

大型星座

Loading constellations...